Location: Karlsruhe
(49.0131°N, 8.3874°E)
Time: 20:44:05
(UTC+01:00)

ISS - Pass Details

Date: 13 November 2017
Orbit: 402 x 407 km, 51.6° (Epoch: 20 November)

Event Time Altitude Azimuth Distance (km) Brightness Sun altitude
Exits shadow 06:35:23 14° 278° (W) 1,244 -2.0 -9.6°
Maximum altitude 06:37:53 38° 212° (SSW) 627 -3.0 -9.2°
Drops below altitude 10° 06:40:56 10° 142° (SE) 1,451 -0.1 -8.7°
Sets 06:43:05 0° 134° (SE) 2,307 1.3 -8.4°
